Regional Weather Roundup
Issued by NWS State College, PA

Home | Current Version | Previous Version | Text Only | Print | Product List | Glossary On
Versions: 1 2 3 4 5 6 7 8 9 10 11 12 13 14 15 16 17 18 19 20 21 22 23 24 25 26 27 28 29 30 31 32 33 34 35 36 37 38 39 40 41 42 43
000
ASUS41 KCTP 201103
RWRCTP

REGIONAL WEATHER ROUNDUP
NATIONAL WEATHER SERVICE STATE COLLEGE PA
600 AM EST TUE FEB 20 2018

Note: "fair" indicates few or no clouds below 12,000 feet with no
significant weather and/or obstructions to visibility.

* = STATION THAT DOES NOT REPORT PRECIPITATION /E.G. RAIN...SNOW...ETC/
    THUNDER OR FOG.

PAZ002>004-007>009-013>016-020>023-029>032-201200-
WESTERN PENNSYLVANIA

CITY           SKY/WX    TMP DP  RH WIND       PRES   REMARKS
ERIE           CLOUDY    64  53  67 S15G24    30.06R
MEADVILLE      CLOUDY    59  53  80 S13G21    30.12R
FRANKLIN*      MOCLDY    58  52  80 SW12G20   30.15S
NEW CASTLE     CLOUDY    60  54  80 S7        30.15S
BEAVER COUNTY  NOT AVBL
BUTLER*        FAIR      60  52  74 S10       30.18R
PITTSBURGH INT MOCLDY    62  52  69 SW9       30.18R
PITTSBURGH     FAIR      59  49  69 S9        30.20R
INDIANA*       CLOUDY    59  54  82 SW6       30.25R
LATROBE        FAIR      57  52  82 S7        30.22R
WASHINGTON CO* FAIR      62  52  69 S8        30.23R
$$

PAZ004>006-010>012-017>019-024>028-033>037-041-042-045-046-049>053-201200-
CENTRAL PENNSYLVANIA

CITY           SKY/WX    TMP DP  RH WIND       PRES   REMARKS
BRADFORD       FAIR      55  51  86 SW8       30.16R
DUBOIS         CLOUDY    58  50  75 SW12      30.18R
CLEARFIELD     FOG       34  34 100 CALM      30.22S VSB 1/2
JOHNSTOWN      MOCLDY    58  50  75 SW12      30.23R
ALTOONA        FOG       44  43  96 CALM      30.25R VSB 1
STATE COLLEGE  FOG       32  32 100 CALM      30.25R VSB 1/4
WILLIAMSPORT   CLOUDY    42  41  96 SE3       30.27R FOG
SELINSGROVE    FOG       41  40  96 CALM      30.29R VSB 1/4
FT INDIANTOWN  FOG       41  41 100 CALM      30.31R VSB 3/8
CAPITAL CITY   FOG       44  43  96 CALM      30.31R VSB 1/4
HARRISBURG     FOG       42  40  92 CALM      30.31R VSB 1/4
YORK           CLOUDY    48  48 100 CALM      30.30R
$$

PAZ038>040-043-044-047-048-054-055-060>062-067>071-201200-
EASTERN PENNSYLVANIA

CITY           SKY/WX    TMP DP  RH WIND       PRES   REMARKS
SCRANTON       FOG       42  42 100 SW3       30.27R VSB 1
MOUNT POCONO   CLOUDY    45  45 100 W13       30.25R FOG
ALLENTOWN      FOG       38  36  92 CALM      30.31R VSB 1/4
QUAKERTOWN*    FOG       41  41 100 CALM      30.31R VSB 0
READING        FOG       38  38 100 N5        30.31R VSB 1/4
LANCASTER      FOG       45  45 100 CALM      30.31R VSB 1/4
COATESVILLE    FOG       48 N/A N/A VRB6      30.32R VSB<1/4
POTTSTOWN      FOG       46  46 100 S3        30.33R VSB 1
BLUE BELL      CLOUDY    48  48 100 SW5       30.33R
DOYLESTOWN     CLOUDY    48  48 100 SW5       30.31R FOG
WILLOW GROVE   NOT AVBL
NORTH PHILA    CLOUDY    53  51  93 SW7       30.34R FOG
PHILADELPHIA   FOG       50  50 100 SW9       30.34R VSB 1/2
$$




USA.gov is the U.S. government's official web portal to all federal, state and local government web resources and services.